Miscellaneous Local Product
Issued by NWS Hastings, NE

Home | Current Version | Previous Version | Text Only | Print | Product List | Glossary Off
Versions: 1 2 3 4 5 6 7 8 9 10 11 12 13 14 15 16 17 18 19 20 21 22 23 24 25 26 27 28 29 30 31 32 33 34 35 36 37 38 39 40 41 42 43 44 45 46 47 48 49 50

000
AXUS43 KGID 051802
MISGRI

GID CWA HOURLY WEATHER ROUNDUP
NATIONAL WEATHER SERVICE HASTINGS NE
100 PM CDT TUE MAY 05 2015

NOTE: "FAIR" INDICATES FEW OR NO CLOUDS BELOW 12,000 FEET WITH NO
SIGNIFICANT WEATHER AND/OR OBSTRUCTIONS TO VISIBILITY.

...SOUTH CENTRAL NEBRASKA...

CITY           SKY/WX    TMP DP  RH WIND       PRES   REMARKS
GRAND ISLAND   PTSUNNY   68  60  75 SE10      30.03F
HASTINGS       PTSUNNY   71  60  68 SE13      30.01F
KEARNEY        CLOUDY    66  61  82 SE13      30.01F
ORD            CLOUDY    63  57  81 SE9       30.02S
YORK           PTSUNNY   68  63  83 S10       30.05F
AURORA         PTSUNNY   71  64  78 SE12G20   30.03F
LEXINGTON      CLOUDY    62  60  95 E10       30.01S FOG
HOLDREGE       CLOUDY    66  59  77 SE14      30.00F
HEBRON         CLOUDY    72  56  58 S13       30.04F

...NEBRASKA PANHANDLE...

CITY           SKY/WX    TMP DP  RH WIND       PRES   REMARKS
CHADRON        CLOUDY    59  48  67 S10       29.96F
ALLIANCE       CLOUDY    59  49  69 SE16G22   29.97F
SCOTTSBLUFF    CLOUDY    60  49  66 SE14      29.96F
SIDNEY         CLOUDY    52  48  86 SE12      29.99F

...WESTERN AND NORTH CENTRAL NEBRASKA...

CITY           SKY/WX    TMP DP  RH WIND       PRES   REMARKS
VALENTINE      LGT RAIN  55  53  93 SE8       30.02F FOG
AINSWORTH      CLOUDY    58  57  96 SE8       30.02F
ONEILL         CLOUDY    59  58  96 SE7       30.04F FOG
BROKEN BOW     CLOUDY    61  57  87 SE14G21   30.01F
IMPERIAL       CLOUDY    55  54  96 E8        29.98F FOG
NORTH PLATTE   LGT RAIN  58  56  93 E8        30.00F
MCCOOK         CLOUDY    61  58  90 E9        29.97F FOG

...EASTERN NEBRASKA...

CITY           SKY/WX    TMP DP  RH WIND       PRES   REMARKS
NORFOLK        PTSUNNY   69  61  75 SE9       30.04F
SO SIOUX CITY  CLOUDY    63  59  87 S7        30.08F FOG
TEKAMAH        PTSUNNY   72  64  76 SE12      30.06F
COLUMBUS       PTSUNNY   66  59  77 SE8       30.07F
ALBION         CLOUDY    63  60  90 SE10      30.05F
OMAHA EPPLEY   CLOUDY    72  61  68 S14       30.07F
OFFUTT AFB     PTSUNNY   73  63  71 SE14G23   30.07F
MILLARD        PTSUNNY   71  62  73 SE13      30.07F
LINCOLN        PTSUNNY   72  63  73 S13       30.06F
NEBRASKA CITY  CLOUDY    70  61  73 S10       30.08F
BEATRICE       PTSUNNY   72  60  66 S7        30.06F
FALLS CITY     PTSUNNY   76  60  57 S15       30.07F

...NORTHERN KANSAS...

CITY           SKY/WX    TMP DP  RH WIND       PRES   REMARKS
GOODLAND       LGT RAIN  58  56  93 E17       29.95F FOG
HILL CITY      CLOUDY    65  57  75 S10       29.98F
NORTON         CLOUDY    68  54  60 SE20G25   29.96F
PHILLIPSBURG   CLOUDY    73  57  56 S13       29.98F
SMITH CENTER   MOSUNNY   73  55  53 S16G26    30.00F
HAYS           CLOUDY    66  54  63 S20G25    29.98F
RUSSELL        PTSUNNY   71  56  58 SE26G32   29.98F
CONCORDIA      CLOUDY    73  57  57 SE22G29   30.03F
SALINA         PTSUNNY   76  57  51 S18G25    30.02F
TOPEKA         PTSUNNY   77  58  51 S14G21    30.08F



USA.gov is the U.S. government's official web portal to all federal, state and local government web resources and services.